Regional Weather Roundup
Issued by NWS

Home | Current Version | Previous Version | Text Only | Print | Product List | Glossary On
Versions: 1 2 3 4 5 6 7 8 9 10 11 12 13 14 15 16 17 18 19 20 21 22 23 24 25 26 27 28 29 30 31 32 33 34 35 36 37 38 39 40 41 42 43 44 45 46 47 48 49 50
997
ASCA44 KEWX 301320
RWRMX

LATIN AMERICA AND CARIBBEAN REGIONAL WEATHER ROUNDUP
NATIONAL WEATHER SERVICE AUSTIN/SAN ANTONIO TX
800 AM CDT TUE MAY 30 2017

NOTE: "FAIR" INDICATED FEW OR NO CLOUDS BELOW 12,000 FEET WITH NO
SIGNIFICANT WEATHER AND/OR OBSTRUCTIONS TO VISIBILITY.

BAJA CALIFORNIA

CITY           SKY/WX    TMP DP  RH WIND       PRES   REMARKS
LORETO         PTCLDY    73  66  78 CALM      29.79
MEXICALI       CLEAR     68  48  49 E6        29.76
S.J. DEL CABO  CLEAR     70  41  35 CALM      29.86R
TIJUANA        CLOUDY    59  52  77 W5        29.92R FOG

NORTHWESTERN MEXICO

CITY           SKY/WX    TMP DP  RH WIND       PRES   REMARKS
CULIACAN       PTCLDY    73  70  88 SE5       29.89
DURANGO        CLEAR     57  48  72 NW3       30.28
HERMOSILLO     CLOUDY    73  46  38 CALM      29.86
CD. JUAREZ     MOSUNNY   63  45  51 CALM      30.10
LOS MOCHIS     MOCLDY    70  64  83 E6        29.88
OBREGON        MOCLDY    70  57  64 E6        29.84

NORTHEASTERN MEXICO

CITY           SKY/WX    TMP DP  RH WIND       PRES   REMARKS
MONCLOVA       MOSUNNY   73  54  49 CALM      30.04
MONTERREY      MOSUNNY   72  66  83 CALM      30.09R
REYNOSA        MOSUNNY   72  66  83 NE5       30.01
SALTILLO       SUNNY     75  54  46 CALM      30.25R
TORREON        MOSUNNY   68  57  68 CALM      30.12
CD. VICTORIA   CLOUDY    68  68 100 W2        30.04  FOG

WESTERN MEXICO

CITY           SKY/WX    TMP DP  RH WIND       PRES   REMARKS
AGUASCALIENTES SUNNY     55  48  76 NE7       30.27
COLIMA         PTCLDY    70  63  78 CALM      30.04R
DEL BAJIO      SUNNY     61  54  77 CALM      30.29R
GUADALAJARA    CLEAR     63  50  63 CALM      30.18
MAZATLAN       CLEAR     70  68  94 NE5       29.90R
P. VALLARTA    CLEAR     70  70 100 CALM      29.90R
URUAPAN        CLOUDY    63  61  94 CALM      30.15R
ZACATECAS      MOSUNNY   55  48  76 CALM      30.30R

CENTRAL MEXICO

CITY           SKY/WX    TMP DP  RH WIND       PRES   REMARKS
CUERNAVACA       N/A    N/A N/A N/A MISG        N/A
MEXICO CITY    PTSUNNY   61  48  63 N6        30.31R
MORELIA        CLOUDY    61  61 100 CALM      30.22
POZA RICA      CLOUDY    72  72 100 NW9       30.00R
PUEBLA         PTSUNNY   57  52  82 NE3       30.30
QUERETARO      PTSUNNY   59  52  77 E6        30.31R
S. LUIS POTOSI MOSUNNY   55  48  76 CALM      30.26R
TAMPICO        PTSUNNY   73  72  94 CALM      29.99R
TOLUCA         PTSUNNY   52  48  87 CALM      30.35R FOG

SOUTHERN MEXICO

CITY           SKY/WX    TMP DP  RH WIND       PRES   REMARKS
ACAPULCO       LGT RAIN  77  75  94 S5        29.88R
B. DE HUATULCO PTSUNNY  N/A N/A N/A MISG      29.95
OAXACA         CLOUDY    64  61  88 CALM      30.19R
P. ESCONDIDO   PTSUNNY   81  72  74 E7        29.96R
VERACRUZ       RAIN      75  75 100 N8        29.92R VSB 1
ZIHUATANEJO    LGT RAIN  79  77  94 N3        29.89R

YUCATAN PENINSULA

CITY           SKY/WX    TMP DP  RH WIND       PRES   REMARKS
CAMPECHE       PTSUNNY   82  75  78 E12       29.93R
CANCUN         PTSUNNY   82  77  83 E8        30.03R HX  91
CHETUMAL         N/A    N/A N/A N/A MISG        N/A
CD. DEL CARMEN CLOUDY    81  81 100 SE14      29.93  HX  91
COZUMEL        PTSUNNY   82  75  78 SE9       30.01R
MERIDA         CLOUDY    81  73  78 E9        29.99R
MINATITLAN     PTSUNNY   79  73  83 S9        29.90
TAPACHULA      CLOUDY    75  75 100 CALM      29.91R
TUX. GUTIERREZ CLOUDY    70  68  94 CALM      30.01R
VILLAHERMOSA   CLOUDY    75  73  94 CALM      29.93R HAZE

CENTRAL AMERICA

CITY           SKY/WX    TMP DP  RH WIND       PRES   REMARKS
BELIZE CITY    MOSUNNY   84  79  84 E8        29.95R HX  96
MANAGUA        MOSUNNY   81  73  78 SE5       29.89S

CARIBBEAN

CITY           SKY/WX    TMP DP  RH WIND       PRES   REMARKS
ARUBA          MOSUNNY   86  77  74 E22G33    29.97R HX  97
KINGSTON       MOSUNNY   82  73  74 NW7       30.00S
NASSAU         MOSUNNY   90  64  43 E8        30.15R HX  91
SAN JUAN       MOSUNNY   82  77  83 E12       30.11R HX  91
SANTO DOMINGO  PTSUNNY   82  75  78 SW9       30.09S
ST. CROIX      MOSUNNY   86  75  70 E21       30.11  HX  95
ST. MAARTEN    PTSUNNY   82  75  78 E14       30.09S
ST. THOMAS     MOSUNNY   86  77  74 SE12G21   30.10  HX  97

$$





USA.gov is the U.S. government's official web portal to all federal, state and local government web resources and services.